Regional Weather Roundup
Issued by NWS

Home | Current Version | Previous Version | Graphics & Text | Print | Product List | Glossary On
Versions: 1 2 3 4 5 6 7 8 9 10 11 12 13 14 15 16 17 18 19 20 21 22 23 24 25 26 27 28 29 30 31 32 33 34 35 36 37 38 39 40 41 42 43 44 45 46 47 48 49 50
000
ASUS43 KLSX 200707
RWRMO

WEATHER SUMMARY FOR MISSOURI
NATIONAL WEATHER SERVICE SPRINGFIELD MO
200 AM CDT SUN APR 20 2014

NOTE: "FAIR" INDICATES FEW OR NO CLOUDS BELOW 12,000 FEET WITH NO
       SIGNIFICANT WEATHER AND/OR OBSTRUCTIONS TO VISIBILITY.
       CURRENT SKY AND/OR WEATHER CONDITIONS ARE NOT AVAILABLE FOR
       CHILLICOTHE AND FARMINGTON.

MOZ001>031-035>038-043-044-053-054-200800-
...NORTHERN AND WESTERN MISSOURI...

CITY           SKY/WX    TMP DP  RH WIND       PRES   REMARKS
KANSAS CTY INT PTCLDY    57  45  64 SE10      30.09S
KANSAS C DTWN  PTCLDY    65  45  48 CALM      30.09S
LEE`S SUMMIT   MOCLDY    62  44  51 S8        30.11S
ST JOSEPH      CLEAR     57  44  62 S6        30.08S
CHILLICOTHE      N/A     54  45  71 CALM      30.11F
KIRKSVILLE     PTCLDY    51  40  65 S7        30.13F

$$
MOZ066>068-077>081-088>096-101>105-200800-
...SOUTHWEST MISSOURI...

CITY           SKY/WX    TMP DP  RH WIND       PRES   REMARKS
SPRINGFIELD    PTCLDY    58  44  60 S9        30.15R
JOPLIN         CLOUDY    58  47  66 S8        30.14R

$$
MOZ032>034-039>042-045>050-055>058-069>072-200800-
...CENTRAL MISSOURI...

CITY           SKY/WX    TMP DP  RH WIND       PRES   REMARKS
COLUMBIA       PTCLDY    59  41  51 SE7       30.15R
JEFFERSON CITY PTCLDY    61  39  44 E7        30.15R
ROLLA          CLEAR     59  39  47 S9        30.15S
SEDALIA        MOCLDY    59  43  55 S8        30.14R
WHITEMAN AFB   MOCLDY    59  38  45 S6        30.12R
OSAGE BEACH    MOCLDY    59  39  47 S5        30.17R

$$
MOZ051-052-059>065-200800-
...EAST CENTRAL MISSOURI...

CITY           SKY/WX    TMP DP  RH WIND       PRES   REMARKS
ST LOUIS INTL  MOCLDY    61  40  45 SE3       30.18R
SPIRIT OF STL  PTCLDY    51  44  77 CALM      30.17R
ST CHARLES     PTCLDY    55  45  68 CALM      30.18R

$$
MOZ072>076-082>087-097>100-106>115-200800-
...SOUTH CENTRAL AND SOUTHEAST MISSOURI...

CITY           SKY/WX    TMP DP  RH WIND       PRES   REMARKS
CAPE GIRARDEAU CLEAR     51  45  79 CALM      30.17S
FARMINGTON     CLEAR     48  41  76 CALM      30.21S
POPLAR BLUFF   CLEAR     51  45  79 N3        30.16S
WEST PLAINS    CLEAR     51  40  65 CALM      30.19R

$$



USA.gov is the U.S. government's official web portal to all federal, state and local government web resources and services.